Location: Brookview Estates
(36.0476°N, 86.6931°W)
Time: 18:33:43
(UTC+00:00)

Cosmos 2297 - Pass Details

Date: 30 March 2020
Orbit: 834 x 860 km, 71.0° (Epoch: 03 June)

Event Time Altitude Azimuth Distance (km) Brightness Sun altitude
Rises 01:59:57 0° 335° (NNW) 3,406 7.6 -22.9°
Reaches altitude 10° 02:02:25 10° 333° (NNW) 2,472 6.8 -23.4°
Maximum altitude 02:08:03 69° 251° (WSW) 909 3.9 -24.4°
Enters shadow 02:10:15 38° 180° (S) 1,284 4.4 -24.8°
